Location: *
(55.6049°S, 142.1985°W)
Time: 23:37:40
(UTC+00:00)

Cosmos 921 Rocket - Pass Details

Date: 12 May 2021
Orbit: 572 x 631 km, 75.8° (Epoch: 23 June)

Event Time Altitude Azimuth Distance (km) Brightness Sun altitude
Exits shadow 16:04:08 - 208° (SSW) 2,521 5.8 -9.7°
Reaches altitude 10° 16:05:24 10° 209° (SSW) 2,016 5.3 -9.5°
Maximum altitude 16:09:51 63° 289° (WNW) 713 3.2 -8.9°
Drops below altitude 10° 16:14:20 10° 9° (N) 2,020 6.1 -8.3°
Sets 16:16:36 0° 12° (NNE) 2,925 7.0 -8.0°
